Location: Kunchanapalle
(16.4623°N, 80.6176°E)
Time: 12:46:56
(UTC+00:00)

Cosmos 1805 Rocket - Pass Details

Date: 13 August 2020
Orbit: 605 x 631 km, 82.5° (Epoch: 24 September)

Event Time Altitude Azimuth Distance (km) Brightness Sun altitude
Rises 13:41:01 0° 169° (S) 2,880 6.7 -9.5°
Reaches altitude 10° 13:43:20 10° 161° (SSE) 1,980 5.8 -10.0°
Maximum altitude 13:47:26 39° 92° (E) 928 4.0 -10.9°
Drops below altitude 10° 13:51:34 10° 23° (NNE) 1,997 6.1 -11.9°
Sets 13:53:54 0° 16° (NNE) 2,907 7.1 -12.4°
